Year,Month,Day,Hour,Minute,Value (Times are PST for temperature in C)
2017,09,21,00,00,9.20
2017,09,21,00,01,9.20
2017,09,21,00,02,9.20
2017,09,21,00,03,9.20
2017,09,21,00,04,9.20
2017,09,21,00,05,9.20
2017,09,21,00,06,9.20
2017,09,21,00,07,9.20
2017,09,21,00,08,9.20
2017,09,21,00,09,9.20
2017,09,21,00,10,9.10
2017,09,21,00,11,9.10
2017,09,21,00,12,9.10
2017,09,21,00,13,9.10
2017,09,21,00,14,9.10
2017,09,21,00,15,9.10
2017,09,21,00,16,9.10
2017,09,21,00,17,9.10
2017,09,21,00,18,9.00
2017,09,21,00,19,9.00
2017,09,21,00,20,9.00
2017,09,21,00,21,9.00
2017,09,21,00,22,9.00
2017,09,21,00,23,9.00
2017,09,21,00,24,9.00
2017,09,21,00,25,9.00
2017,09,21,00,26,9.00
2017,09,21,00,27,8.90
2017,09,21,00,28,8.90
2017,09,21,00,29,8.90
2017,09,21,00,30,8.90
2017,09,21,00,31,8.90
2017,09,21,00,32,8.80
2017,09,21,00,33,8.80
2017,09,21,00,34,8.80
2017,09,21,00,35,8.80
2017,09,21,00,36,8.70
2017,09,21,00,37,8.70
2017,09,21,00,38,8.70
2017,09,21,00,39,8.70
2017,09,21,00,40,8.70
2017,09,21,00,41,8.60
2017,09,21,00,42,8.60
2017,09,21,00,43,8.60
2017,09,21,00,44,8.60
2017,09,21,00,45,8.60
2017,09,21,00,46,8.60
2017,09,21,00,47,8.60
2017,09,21,00,48,8.60
2017,09,21,00,49,8.60
2017,09,21,00,50,8.60
2017,09,21,00,51,8.60
2017,09,21,00,52,8.60
2017,09,21,00,53,8.60
2017,09,21,00,54,8.60
2017,09,21,00,55,8.60
2017,09,21,00,56,8.60
2017,09,21,00,57,8.60
2017,09,21,00,58,8.60
2017,09,21,00,59,8.60
2017,09,21,01,00,8.60
2017,09,21,01,01,8.60
2017,09,21,01,02,8.60
2017,09,21,01,03,8.60
2017,09,21,01,04,8.60
2017,09,21,01,05,8.60
2017,09,21,01,06,8.60
2017,09,21,01,07,8.50
2017,09,21,01,08,8.50
2017,09,21,01,09,8.50
2017,09,21,01,10,8.50
2017,09,21,01,11,8.50
2017,09,21,01,12,8.40
2017,09,21,01,13,8.40
2017,09,21,01,14,8.40
2017,09,21,01,15,8.40
2017,09,21,01,16,8.40
2017,09,21,01,17,8.30
2017,09,21,01,18,8.30
2017,09,21,01,19,8.30
2017,09,21,01,20,8.30
2017,09,21,01,21,8.30
2017,09,21,01,22,8.30
2017,09,21,01,23,8.30
2017,09,21,01,24,8.30
2017,09,21,01,25,8.30
2017,09,21,01,26,8.40
2017,09,21,01,27,8.40
2017,09,21,01,28,8.40
2017,09,21,01,29,8.40
2017,09,21,01,30,8.40
2017,09,21,01,31,8.40
2017,09,21,01,32,8.40
2017,09,21,01,33,8.40
2017,09,21,01,34,8.30
2017,09,21,01,35,8.30
2017,09,21,01,36,8.30
2017,09,21,01,37,8.30
2017,09,21,01,38,8.30
2017,09,21,01,39,8.30
2017,09,21,01,40,8.30
2017,09,21,01,41,8.30
2017,09,21,01,42,8.30
2017,09,21,01,43,8.30
2017,09,21,01,44,8.30
2017,09,21,01,45,8.40
2017,09,21,01,46,8.40
2017,09,21,01,47,8.40
2017,09,21,01,48,8.40
2017,09,21,01,49,8.40
2017,09,21,01,50,8.40
2017,09,21,01,51,8.40
2017,09,21,01,52,8.40
2017,09,21,01,53,8.40
2017,09,21,01,54,8.40
2017,09,21,01,55,8.40
2017,09,21,01,56,8.40
2017,09,21,01,57,8.40
2017,09,21,01,58,8.30
2017,09,21,01,59,8.40
2017,09,21,02,00,8.30
2017,09,21,02,01,8.40
2017,09,21,02,02,8.40
2017,09,21,02,03,8.40
2017,09,21,02,04,8.50
2017,09,21,02,05,8.50
2017,09,21,02,06,8.60
2017,09,21,02,07,8.50
2017,09,21,02,08,8.50
2017,09,21,02,09,8.50
2017,09,21,02,10,8.50
2017,09,21,02,11,8.50
2017,09,21,02,12,8.50
2017,09,21,02,13,8.50
2017,09,21,02,14,8.50
2017,09,21,02,15,8.50
2017,09,21,02,16,8.50
2017,09,21,02,17,8.40
2017,09,21,02,18,8.40
2017,09,21,02,19,8.40
2017,09,21,02,20,8.40
2017,09,21,02,21,8.40
2017,09,21,02,22,8.40
2017,09,21,02,23,8.40
2017,09,21,02,24,8.40
2017,09,21,02,25,8.40
2017,09,21,02,26,8.40
2017,09,21,02,27,8.40
2017,09,21,02,28,8.40
2017,09,21,02,29,8.40
2017,09,21,02,30,8.40
2017,09,21,02,31,8.40
2017,09,21,02,32,8.40
2017,09,21,02,33,8.40
2017,09,21,02,34,8.40
2017,09,21,02,35,8.40
2017,09,21,02,36,8.40
2017,09,21,02,37,8.40
2017,09,21,02,38,8.50
2017,09,21,02,39,8.50
2017,09,21,02,40,8.50
2017,09,21,02,41,8.50
2017,09,21,02,42,8.50
2017,09,21,02,43,8.50
2017,09,21,02,44,8.50
2017,09,21,02,45,8.50
2017,09,21,02,46,8.50
2017,09,21,02,47,8.50
2017,09,21,02,48,8.60
2017,09,21,02,49,8.60
2017,09,21,02,50,8.60
2017,09,21,02,51,8.60
2017,09,21,02,52,8.60
2017,09,21,02,53,8.60
2017,09,21,02,54,8.60
2017,09,21,02,55,8.60
2017,09,21,02,56,8.60
2017,09,21,02,57,8.60
2017,09,21,02,58,8.60
2017,09,21,02,59,8.60
2017,09,21,03,00,8.60
2017,09,21,03,01,8.60
2017,09,21,03,02,8.70
2017,09,21,03,03,8.70
2017,09,21,03,04,8.70
2017,09,21,03,05,8.70
2017,09,21,03,06,8.70
2017,09,21,03,07,8.70
2017,09,21,03,08,8.70
2017,09,21,03,09,8.70
2017,09,21,03,10,8.70
2017,09,21,03,11,8.70
2017,09,21,03,12,8.70
2017,09,21,03,13,8.70
2017,09,21,03,14,8.70
2017,09,21,03,15,8.70
2017,09,21,03,16,8.70
2017,09,21,03,17,8.70
2017,09,21,03,18,8.80
2017,09,21,03,19,8.80
2017,09,21,03,20,8.80
2017,09,21,03,21,8.80
2017,09,21,03,22,8.90
2017,09,21,03,23,8.90
2017,09,21,03,24,8.90
2017,09,21,03,25,8.90
2017,09,21,03,26,9.00
2017,09,21,03,27,9.00
2017,09,21,03,28,9.00
2017,09,21,03,29,9.10
2017,09,21,03,30,9.00
2017,09,21,03,31,9.10
2017,09,21,03,32,9.10
2017,09,21,03,33,9.10
2017,09,21,03,34,9.20
2017,09,21,03,35,9.20
2017,09,21,03,36,9.20
2017,09,21,03,37,9.10
2017,09,21,03,38,9.10
2017,09,21,03,39,9.00
2017,09,21,03,40,9.00
2017,09,21,03,41,9.00
2017,09,21,03,42,9.00
2017,09,21,03,43,9.00
2017,09,21,03,44,9.10
2017,09,21,03,45,9.10
2017,09,21,03,46,9.10
2017,09,21,03,47,9.10
2017,09,21,03,48,9.10
2017,09,21,03,49,9.10
2017,09,21,03,50,9.10
2017,09,21,03,51,9.10
2017,09,21,03,52,9.10
2017,09,21,03,53,9.00
2017,09,21,03,54,9.00
2017,09,21,03,55,9.00
2017,09,21,03,56,8.90
2017,09,21,03,57,8.90
2017,09,21,03,58,8.90
2017,09,21,03,59,8.90
2017,09,21,04,00,8.90
2017,09,21,04,01,8.80
2017,09,21,04,02,8.80
2017,09,21,04,03,8.80
2017,09,21,04,04,8.80
2017,09,21,04,05,8.80
2017,09,21,04,06,8.80
2017,09,21,04,07,8.80
2017,09,21,04,08,8.80
2017,09,21,04,09,8.80
2017,09,21,04,10,8.70
2017,09,21,04,11,8.70
2017,09,21,04,12,8.70
2017,09,21,04,13,8.70
2017,09,21,04,14,8.70
2017,09,21,04,15,8.70
2017,09,21,04,16,8.70
2017,09,21,04,17,8.70
2017,09,21,04,18,8.80
2017,09,21,04,19,8.70
2017,09,21,04,20,8.70
2017,09,21,04,21,8.70
2017,09,21,04,22,8.70
2017,09,21,04,23,8.70
2017,09,21,04,24,8.60
2017,09,21,04,25,8.60
2017,09,21,04,26,8.60
2017,09,21,04,27,8.60
2017,09,21,04,28,8.60
2017,09,21,04,29,8.60
2017,09,21,04,30,8.60
2017,09,21,04,31,8.60
2017,09,21,04,32,8.50
2017,09,21,04,33,8.50
2017,09,21,04,34,8.50
2017,09,21,04,35,8.50
2017,09,21,04,36,8.50
2017,09,21,04,37,8.50
2017,09,21,04,38,8.50
2017,09,21,04,39,8.50
2017,09,21,04,40,8.50
2017,09,21,04,41,8.40
2017,09,21,04,42,8.50
2017,09,21,04,43,8.40
2017,09,21,04,44,8.40
2017,09,21,04,45,8.40
2017,09,21,04,46,8.40
2017,09,21,04,47,8.40
2017,09,21,04,48,8.40
2017,09,21,04,49,8.40
2017,09,21,04,50,8.40
2017,09,21,04,51,8.30
2017,09,21,04,52,8.40
2017,09,21,04,53,8.40
2017,09,21,04,54,8.40
2017,09,21,04,55,8.40
2017,09,21,04,56,8.30
2017,09,21,04,57,8.30
2017,09,21,04,58,8.30
2017,09,21,04,59,8.30
2017,09,21,05,00,8.30
2017,09,21,05,01,8.30
2017,09,21,05,02,8.30
2017,09,21,05,03,8.30
2017,09,21,05,04,8.30
2017,09,21,05,05,8.30
2017,09,21,05,06,8.30
2017,09,21,05,07,8.30
2017,09,21,05,08,8.30
2017,09,21,05,09,8.20
2017,09,21,05,10,8.20
2017,09,21,05,11,8.20
2017,09,21,05,12,8.20
2017,09,21,05,13,8.20
2017,09,21,05,14,8.20
2017,09,21,05,15,8.20
2017,09,21,05,16,8.20
2017,09,21,05,17,8.20
2017,09,21,05,18,8.20
2017,09,21,05,19,8.20
2017,09,21,05,20,8.10
2017,09,21,05,21,8.10
2017,09,21,05,22,8.10
2017,09,21,05,23,8.10
2017,09,21,05,24,8.10
2017,09,21,05,25,8.10
2017,09,21,05,26,8.10
2017,09,21,05,27,8.10
2017,09,21,05,28,8.10
2017,09,21,05,29,8.10
2017,09,21,05,30,8.10
2017,09,21,05,31,8.10
2017,09,21,05,32,8.10
2017,09,21,05,33,8.10
2017,09,21,05,34,8.10
2017,09,21,05,35,8.10
2017,09,21,05,36,8.10
2017,09,21,05,37,8.10
2017,09,21,05,38,8.00
2017,09,21,05,39,8.00
2017,09,21,05,40,8.00
2017,09,21,05,41,8.00
2017,09,21,05,42,8.00
2017,09,21,05,43,8.10
2017,09,21,05,44,8.10
2017,09,21,05,45,8.10
2017,09,21,05,46,8.00
2017,09,21,05,47,8.10
2017,09,21,05,48,8.10
2017,09,21,05,49,8.10
2017,09,21,05,50,8.00
2017,09,21,05,51,8.00
2017,09,21,05,52,8.10
2017,09,21,05,53,8.20
2017,09,21,05,54,8.20
2017,09,21,05,55,8.10
2017,09,21,05,56,8.10
2017,09,21,05,57,8.10
2017,09,21,05,58,8.10
2017,09,21,05,59,8.10
2017,09,21,06,00,8.10
2017,09,21,06,01,8.10
2017,09,21,06,02,8.00
2017,09,21,06,03,8.00
2017,09,21,06,04,8.00
2017,09,21,06,05,8.00
2017,09,21,06,06,8.00
2017,09,21,06,07,8.00
2017,09,21,06,08,8.00
2017,09,21,06,09,8.00
2017,09,21,06,10,8.00
2017,09,21,06,11,8.00
2017,09,21,06,12,8.00
2017,09,21,06,13,7.90
2017,09,21,06,14,7.90
2017,09,21,06,15,7.90
2017,09,21,06,16,7.90
2017,09,21,06,17,7.90
2017,09,21,06,18,7.90
2017,09,21,06,19,7.80
2017,09,21,06,20,7.80
2017,09,21,06,21,7.80
2017,09,21,06,22,7.80
2017,09,21,06,23,7.80
2017,09,21,06,24,7.90
2017,09,21,06,25,7.90
2017,09,21,06,26,7.90
2017,09,21,06,27,8.00
2017,09,21,06,28,8.00
2017,09,21,06,29,8.00
2017,09,21,06,30,8.00
2017,09,21,06,31,8.00
2017,09,21,06,32,8.00
2017,09,21,06,33,8.00
2017,09,21,06,34,8.00
2017,09,21,06,35,8.00
2017,09,21,06,36,8.00
2017,09,21,06,37,8.10
2017,09,21,06,38,8.10
2017,09,21,06,39,8.10
2017,09,21,06,40,8.10
2017,09,21,06,41,8.10
2017,09,21,06,42,8.20
2017,09,21,06,43,8.20
2017,09,21,06,44,8.20
2017,09,21,06,45,8.20
2017,09,21,06,46,8.20
2017,09,21,06,47,8.20
2017,09,21,06,48,8.20
2017,09,21,06,49,8.30
2017,09,21,06,50,8.30
2017,09,21,06,51,8.30
2017,09,21,06,52,8.30
2017,09,21,06,53,8.30
2017,09,21,06,54,8.30
2017,09,21,06,55,8.20
2017,09,21,06,56,8.20
2017,09,21,06,57,8.20
2017,09,21,06,58,8.20
2017,09,21,06,59,8.20
2017,09,21,07,00,8.30
2017,09,21,07,01,8.20
2017,09,21,07,02,8.20
2017,09,21,07,03,8.20
2017,09,21,07,04,8.20
2017,09,21,07,05,8.20
2017,09,21,07,06,8.20
2017,09,21,07,07,8.20
2017,09,21,07,08,8.20
2017,09,21,07,09,8.20
2017,09,21,07,10,8.20
2017,09,21,07,11,8.20
2017,09,21,07,12,8.20
2017,09,21,07,13,8.20
2017,09,21,07,14,8.20
2017,09,21,07,15,8.20
2017,09,21,07,16,8.10
2017,09,21,07,17,8.10
2017,09,21,07,18,8.10
2017,09,21,07,19,8.10
2017,09,21,07,20,8.10
2017,09,21,07,21,8.10
2017,09,21,07,22,8.10
2017,09,21,07,23,8.10
2017,09,21,07,24,8.10
2017,09,21,07,25,8.10
2017,09,21,07,26,8.10
2017,09,21,07,27,8.10
2017,09,21,07,28,8.20
2017,09,21,07,29,8.20
2017,09,21,07,30,8.20
2017,09,21,07,31,8.20
2017,09,21,07,32,8.20
2017,09,21,07,33,8.20
2017,09,21,07,34,8.20
2017,09,21,07,35,8.20
2017,09,21,07,36,8.20
2017,09,21,07,37,8.20
2017,09,21,07,38,8.20
2017,09,21,07,39,8.20
2017,09,21,07,40,8.20
2017,09,21,07,41,8.30
2017,09,21,07,42,8.30
2017,09,21,07,43,8.30
2017,09,21,07,44,8.40
2017,09,21,07,45,8.40
2017,09,21,07,46,8.40
2017,09,21,07,47,8.40
2017,09,21,07,48,8.40
2017,09,21,07,49,8.40
2017,09,21,07,50,8.40
2017,09,21,07,51,8.40
2017,09,21,07,52,8.40
2017,09,21,07,53,8.40
2017,09,21,07,54,8.40
2017,09,21,07,55,8.40
2017,09,21,07,56,8.40
2017,09,21,07,57,8.40
2017,09,21,07,58,8.40
2017,09,21,07,59,8.40
2017,09,21,08,00,8.50
2017,09,21,08,01,8.50
2017,09,21,08,02,8.60
2017,09,21,08,03,8.60
2017,09,21,08,04,8.70
2017,09,21,08,05,8.70
2017,09,21,08,06,8.70
2017,09,21,08,07,8.80
2017,09,21,08,08,8.80
2017,09,21,08,09,8.80
2017,09,21,08,10,8.90
2017,09,21,08,11,8.90
2017,09,21,08,12,8.90
2017,09,21,08,13,8.90
2017,09,21,08,14,8.90
2017,09,21,08,15,9.00
2017,09,21,08,16,9.00
2017,09,21,08,17,9.00
2017,09,21,08,18,9.00
2017,09,21,08,19,9.00
2017,09,21,08,20,9.10
2017,09,21,08,21,9.10
2017,09,21,08,22,9.10
2017,09,21,08,23,9.10
2017,09,21,08,24,9.10
2017,09,21,08,25,9.20
2017,09,21,08,26,9.20
2017,09,21,08,27,9.20
2017,09,21,08,28,9.20
2017,09,21,08,29,9.30
2017,09,21,08,30,9.30
2017,09,21,08,31,9.30
2017,09,21,08,32,9.30
2017,09,21,08,33,9.40
2017,09,21,08,34,9.40
2017,09,21,08,35,9.50
2017,09,21,08,36,9.60
2017,09,21,08,37,9.60
2017,09,21,08,38,9.60
2017,09,21,08,39,9.70
2017,09,21,08,40,9.70
2017,09,21,08,41,9.80
2017,09,21,08,42,9.80
2017,09,21,08,43,9.90
2017,09,21,08,44,10.00
2017,09,21,08,45,10.10
2017,09,21,08,46,10.20
2017,09,21,08,47,10.30
2017,09,21,08,48,10.40
2017,09,21,08,49,10.60
2017,09,21,08,50,10.70
2017,09,21,08,51,10.80
2017,09,21,08,52,10.90
2017,09,21,08,53,11.00
2017,09,21,08,54,11.10
2017,09,21,08,55,11.20
2017,09,21,08,56,11.20
2017,09,21,08,57,11.30
2017,09,21,08,58,11.40
2017,09,21,08,59,11.50
2017,09,21,09,00,11.60
2017,09,21,09,01,11.70
2017,09,21,09,02,11.80
2017,09,21,09,03,11.80
2017,09,21,09,04,11.90
2017,09,21,09,05,12.00
2017,09,21,09,06,12.10
2017,09,21,09,07,12.20
2017,09,21,09,08,12.30
2017,09,21,09,09,12.30
2017,09,21,09,10,12.40
2017,09,21,09,11,12.40
2017,09,21,09,12,12.50
2017,09,21,09,13,12.60
2017,09,21,09,14,12.70
2017,09,21,09,15,12.70
2017,09,21,09,16,12.80
2017,09,21,09,17,12.80
2017,09,21,09,18,12.80
2017,09,21,09,19,12.90
2017,09,21,09,20,12.90
2017,09,21,09,21,12.90
2017,09,21,09,22,13.00
2017,09,21,09,23,13.00
2017,09,21,09,24,13.10
2017,09,21,09,25,13.10
2017,09,21,09,26,13.20
2017,09,21,09,27,13.20
2017,09,21,09,28,13.30
2017,09,21,09,29,13.30
2017,09,21,09,30,13.40
2017,09,21,09,31,13.40
2017,09,21,09,32,13.40
2017,09,21,09,33,13.50
2017,09,21,09,34,13.50
2017,09,21,09,35,13.60
2017,09,21,09,36,13.60
2017,09,21,09,37,13.70
2017,09,21,09,38,13.70
2017,09,21,09,39,13.70
2017,09,21,09,40,13.80
2017,09,21,09,41,13.80
2017,09,21,09,42,13.80
2017,09,21,09,43,13.90
2017,09,21,09,44,13.90
2017,09,21,09,45,13.90
2017,09,21,09,46,13.90
2017,09,21,09,47,13.90
2017,09,21,09,48,13.90
2017,09,21,09,49,13.90
2017,09,21,09,50,13.90
2017,09,21,09,51,14.00
2017,09,21,09,52,14.00
2017,09,21,09,53,13.90
2017,09,21,09,54,13.90
2017,09,21,09,55,14.00
2017,09,21,09,56,14.00
2017,09,21,09,57,14.00
2017,09,21,09,58,13.90
2017,09,21,09,59,13.90
2017,09,21,10,00,13.90
2017,09,21,10,01,13.80
2017,09,21,10,02,13.80
2017,09,21,10,03,13.90
2017,09,21,10,04,13.90
2017,09,21,10,05,13.80
2017,09,21,10,06,13.80
2017,09,21,10,07,13.90
2017,09,21,10,08,13.90
2017,09,21,10,09,13.90
2017,09,21,10,10,13.90
2017,09,21,10,11,14.00
2017,09,21,10,12,14.00
2017,09,21,10,13,14.10
2017,09,21,10,14,14.10
2017,09,21,10,15,14.20
2017,09,21,10,16,14.20
2017,09,21,10,17,14.20
2017,09,21,10,18,14.30
2017,09,21,10,19,14.30
2017,09,21,10,20,14.30
2017,09,21,10,21,14.30
2017,09,21,10,22,14.40
2017,09,21,10,23,14.40
2017,09,21,10,24,14.40
2017,09,21,10,25,14.50
2017,09,21,10,26,14.50
2017,09,21,10,27,14.60
2017,09,21,10,28,14.70
2017,09,21,10,29,14.70
2017,09,21,10,30,14.70
2017,09,21,10,31,14.70
2017,09,21,10,32,14.70
2017,09,21,10,33,14.70
2017,09,21,10,34,14.70
2017,09,21,10,35,14.70
2017,09,21,10,36,14.80
2017,09,21,10,37,14.80
2017,09,21,10,38,14.80
2017,09,21,10,39,14.80
2017,09,21,10,40,14.90
2017,09,21,10,41,14.90
2017,09,21,10,42,14.90
2017,09,21,10,43,15.00
2017,09,21,10,44,15.00
2017,09,21,10,45,15.10
2017,09,21,10,46,15.00
2017,09,21,10,47,14.90
2017,09,21,10,48,14.90
2017,09,21,10,49,14.90
2017,09,21,10,50,14.90
2017,09,21,10,51,14.90
2017,09,21,10,52,14.90
2017,09,21,10,53,14.80
2017,09,21,10,54,14.80
2017,09,21,10,55,14.70
2017,09,21,10,56,14.70
2017,09,21,10,57,14.70
2017,09,21,10,58,14.70
2017,09,21,10,59,14.70
2017,09,21,11,00,14.70
2017,09,21,11,01,14.70
2017,09,21,11,02,14.60
2017,09,21,11,03,14.60
2017,09,21,11,04,14.50
2017,09,21,11,05,14.50
2017,09,21,11,06,14.50
2017,09,21,11,07,14.60
2017,09,21,11,08,14.60
2017,09,21,11,09,14.60
2017,09,21,11,10,14.60
2017,09,21,11,11,14.60
2017,09,21,11,12,14.70
2017,09,21,11,13,14.70
2017,09,21,11,14,14.60
2017,09,21,11,15,14.60
2017,09,21,11,16,14.60
2017,09,21,11,17,14.60
2017,09,21,11,18,14.60
2017,09,21,11,19,14.60
2017,09,21,11,20,14.60
2017,09,21,11,21,14.70
2017,09,21,11,22,14.70
2017,09,21,11,23,14.80
2017,09,21,11,24,14.90
2017,09,21,11,25,15.00
2017,09,21,11,26,15.10
2017,09,21,11,27,15.10
2017,09,21,11,28,15.20
2017,09,21,11,29,15.30
2017,09,21,11,30,15.30
2017,09,21,11,31,15.40
2017,09,21,11,32,15.50
2017,09,21,11,33,15.60
2017,09,21,11,34,15.60
2017,09,21,11,35,15.60
2017,09,21,11,36,15.70
2017,09,21,11,37,15.70
2017,09,21,11,38,15.70
2017,09,21,11,39,15.70
2017,09,21,11,40,15.70
2017,09,21,11,41,15.70
2017,09,21,11,42,15.60
2017,09,21,11,43,15.60
2017,09,21,11,44,15.60
2017,09,21,11,45,15.60
2017,09,21,11,46,15.60
2017,09,21,11,47,15.50
2017,09,21,11,48,15.50
2017,09,21,11,49,15.50
2017,09,21,11,50,15.50
2017,09,21,11,51,15.50
2017,09,21,11,52,15.40
2017,09,21,11,53,15.40
2017,09,21,11,54,15.40
2017,09,21,11,55,15.40
2017,09,21,11,56,15.30
2017,09,21,11,57,15.30
2017,09,21,11,58,15.30
2017,09,21,11,59,15.30
2017,09,21,12,00,15.30
2017,09,21,12,01,15.30
2017,09,21,12,02,15.30
2017,09,21,12,03,15.30
2017,09,21,12,04,15.40
2017,09,21,12,05,15.30
2017,09,21,12,06,15.30
2017,09,21,12,07,15.20
2017,09,21,12,08,15.20
2017,09,21,12,09,15.20
2017,09,21,12,10,15.20
2017,09,21,12,11,15.20
2017,09,21,12,12,15.30
2017,09,21,12,13,15.30
2017,09,21,12,14,15.30
2017,09,21,12,15,15.30
2017,09,21,12,16,15.30
2017,09,21,12,17,15.30
2017,09,21,12,18,15.40
2017,09,21,12,19,15.40
2017,09,21,12,20,15.40
2017,09,21,12,21,15.40
2017,09,21,12,22,15.40
2017,09,21,12,23,15.50
2017,09,21,12,24,15.50
2017,09,21,12,25,15.50
2017,09,21,12,26,15.50
2017,09,21,12,27,15.40
2017,09,21,12,28,15.40
2017,09,21,12,29,15.50
2017,09,21,12,30,15.50
2017,09,21,12,31,15.60
2017,09,21,12,32,15.60
2017,09,21,12,33,15.60
2017,09,21,12,34,15.50
2017,09,21,12,35,15.50
2017,09,21,12,36,15.50
2017,09,21,12,37,15.50
2017,09,21,12,38,15.60
2017,09,21,12,39,15.60
2017,09,21,12,40,15.70
2017,09,21,12,41,15.90
2017,09,21,12,42,16.00
2017,09,21,12,43,16.10
2017,09,21,12,44,16.10
2017,09,21,12,45,16.20
2017,09,21,12,46,16.20
2017,09,21,12,47,16.20
2017,09,21,12,48,16.10
2017,09,21,12,49,16.00
2017,09,21,12,50,15.90
2017,09,21,12,51,15.80
2017,09,21,12,52,15.80
2017,09,21,12,53,15.80
2017,09,21,12,54,15.90
2017,09,21,12,55,15.80
2017,09,21,12,56,15.80
2017,09,21,12,57,15.70
2017,09,21,12,58,15.70
2017,09,21,12,59,15.70
2017,09,21,13,00,15.70
2017,09,21,13,01,15.70
2017,09,21,13,02,15.80
2017,09,21,13,03,15.80
2017,09,21,13,04,15.70
2017,09,21,13,05,15.70
2017,09,21,13,06,15.70
2017,09,21,13,07,15.70
2017,09,21,13,08,15.70
2017,09,21,13,09,15.80
2017,09,21,13,10,15.80
2017,09,21,13,11,15.90
2017,09,21,13,12,16.00
2017,09,21,13,13,16.00
2017,09,21,13,14,16.10
2017,09,21,13,15,16.10
2017,09,21,13,16,16.20
2017,09,21,13,17,16.20
2017,09,21,13,18,16.20
2017,09,21,13,19,16.10
2017,09,21,13,20,16.10
2017,09,21,13,21,16.00
2017,09,21,13,22,16.10
2017,09,21,13,23,16.10
2017,09,21,13,24,16.20
2017,09,21,13,25,16.30
2017,09,21,13,26,16.30
2017,09,21,13,27,16.40
2017,09,21,13,28,16.30
2017,09,21,13,29,16.30
2017,09,21,13,30,16.30
2017,09,21,13,31,16.40
2017,09,21,13,32,16.40
2017,09,21,13,33,16.50
2017,09,21,13,34,16.60
2017,09,21,13,35,16.60
2017,09,21,13,36,16.70
2017,09,21,13,37,16.70
2017,09,21,13,38,16.70
2017,09,21,13,39,16.80
2017,09,21,13,40,16.80
2017,09,21,13,41,16.80
2017,09,21,13,42,16.90
2017,09,21,13,43,16.90
2017,09,21,13,44,16.90
2017,09,21,13,45,16.90
2017,09,21,13,46,16.90
2017,09,21,13,47,16.90
2017,09,21,13,48,16.80
2017,09,21,13,49,16.80
2017,09,21,13,50,16.70
2017,09,21,13,51,16.70
2017,09,21,13,52,16.80
2017,09,21,13,53,16.80
2017,09,21,13,54,16.80
2017,09,21,13,55,16.70
2017,09,21,13,56,16.60
2017,09,21,13,57,16.50
2017,09,21,13,58,16.50
2017,09,21,13,59,16.50
2017,09,21,14,00,16.50
2017,09,21,14,01,16.60
2017,09,21,14,02,16.60
2017,09,21,14,03,16.70
2017,09,21,14,04,16.80
2017,09,21,14,05,16.80
2017,09,21,14,06,16.80
2017,09,21,14,07,16.90
2017,09,21,14,08,16.90
2017,09,21,14,09,17.00
2017,09,21,14,10,17.10
2017,09,21,14,11,17.10
2017,09,21,14,12,17.10
2017,09,21,14,13,17.20
2017,09,21,14,14,17.20
2017,09,21,14,15,17.20
2017,09,21,14,16,17.10
2017,09,21,14,17,17.20
2017,09,21,14,18,17.20
2017,09,21,14,19,17.20
2017,09,21,14,20,17.20
2017,09,21,14,21,17.10
2017,09,21,14,22,17.10
2017,09,21,14,23,17.10
2017,09,21,14,24,17.10
2017,09,21,14,25,17.10
2017,09,21,14,26,17.00
2017,09,21,14,27,17.10
2017,09,21,14,28,17.10
2017,09,21,14,29,17.00
2017,09,21,14,30,17.10
2017,09,21,14,31,17.10
2017,09,21,14,32,17.10
2017,09,21,14,33,17.10
2017,09,21,14,34,17.10
2017,09,21,14,35,17.20
2017,09,21,14,36,17.20
2017,09,21,14,37,17.30
2017,09,21,14,38,17.50
2017,09,21,14,39,17.60
2017,09,21,14,40,17.70
2017,09,21,14,41,17.70
2017,09,21,14,42,17.60
2017,09,21,14,43,17.60
2017,09,21,14,44,17.60
2017,09,21,14,45,17.60
2017,09,21,14,46,17.60
2017,09,21,14,47,17.60
2017,09,21,14,48,17.60
2017,09,21,14,49,17.60
2017,09,21,14,50,17.50
2017,09,21,14,51,17.50
2017,09,21,14,52,17.50
2017,09,21,14,53,17.50
2017,09,21,14,54,17.50
2017,09,21,14,55,17.60
2017,09,21,14,56,17.60
2017,09,21,14,57,17.60
2017,09,21,14,58,17.60
2017,09,21,14,59,17.60
2017,09,21,15,00,17.70
2017,09,21,15,01,17.80
2017,09,21,15,02,17.80
2017,09,21,15,03,17.80
2017,09,21,15,04,17.80
2017,09,21,15,05,17.70
2017,09,21,15,06,17.60
2017,09,21,15,07,17.50
2017,09,21,15,08,17.40
2017,09,21,15,09,17.40
2017,09,21,15,10,17.30
2017,09,21,15,11,17.40
2017,09,21,15,12,17.50
2017,09,21,15,13,17.50
2017,09,21,15,14,17.60
2017,09,21,15,15,17.60
2017,09,21,15,16,17.60
2017,09,21,15,17,17.50
2017,09,21,15,18,17.50
2017,09,21,15,19,17.60
2017,09,21,15,20,17.60
2017,09,21,15,21,17.60
2017,09,21,15,22,17.70
2017,09,21,15,23,17.70
2017,09,21,15,24,17.70
2017,09,21,15,25,17.70
2017,09,21,15,26,17.70
2017,09,21,15,27,17.70
2017,09,21,15,28,17.60
2017,09,21,15,29,17.60
2017,09,21,15,30,17.60
2017,09,21,15,31,17.60
2017,09,21,15,32,17.50
2017,09,21,15,33,17.50
2017,09,21,15,34,17.50
2017,09,21,15,35,17.60
2017,09,21,15,36,17.70
2017,09,21,15,37,17.70
2017,09,21,15,38,17.70
2017,09,21,15,39,17.80
2017,09,21,15,40,17.80
2017,09,21,15,41,17.80
2017,09,21,15,42,17.90
2017,09,21,15,43,18.00
2017,09,21,15,44,18.00
2017,09,21,15,45,18.10
2017,09,21,15,46,18.20
2017,09,21,15,47,18.30
2017,09,21,15,48,18.30
2017,09,21,15,49,18.30
2017,09,21,15,50,18.20
2017,09,21,15,51,18.20
2017,09,21,15,52,18.10
2017,09,21,15,53,18.10
2017,09,21,15,54,18.00
2017,09,21,15,55,18.00
2017,09,21,15,56,18.00
2017,09,21,15,57,18.00
2017,09,21,15,58,18.00
2017,09,21,15,59,18.00
2017,09,21,16,00,18.00
2017,09,21,16,01,18.00
2017,09,21,16,02,18.00
2017,09,21,16,03,18.10
2017,09,21,16,04,18.10
2017,09,21,16,05,18.20
2017,09,21,16,06,18.30
2017,09,21,16,07,18.30
2017,09,21,16,08,18.40
2017,09,21,16,09,18.50
2017,09,21,16,10,18.60
2017,09,21,16,11,18.70
2017,09,21,16,12,18.80
2017,09,21,16,13,18.90
2017,09,21,16,14,18.90
2017,09,21,16,15,18.90
2017,09,21,16,16,19.00
2017,09,21,16,17,19.00
2017,09,21,16,18,19.00
2017,09,21,16,19,19.00
2017,09,21,16,20,19.00
2017,09,21,16,21,18.90
2017,09,21,16,22,18.80
2017,09,21,16,23,18.80
2017,09,21,16,24,18.70
2017,09,21,16,25,18.70
2017,09,21,16,26,18.70
2017,09,21,16,27,18.70
2017,09,21,16,28,18.70
2017,09,21,16,29,18.70
2017,09,21,16,30,18.70
2017,09,21,16,31,18.70
2017,09,21,16,32,18.70
2017,09,21,16,33,18.60
2017,09,21,16,34,18.50
2017,09,21,16,35,18.50
2017,09,21,16,36,18.50
2017,09,21,16,37,18.40
2017,09,21,16,38,18.50
2017,09,21,16,39,18.50
2017,09,21,16,40,18.60
2017,09,21,16,41,18.60
2017,09,21,16,42,18.60
2017,09,21,16,43,18.60
2017,09,21,16,44,18.60
2017,09,21,16,45,18.60
2017,09,21,16,46,18.70
2017,09,21,16,47,18.70
2017,09,21,16,48,18.70
2017,09,21,16,49,18.80
2017,09,21,16,50,18.80
2017,09,21,16,51,18.90
2017,09,21,16,52,19.00
2017,09,21,16,53,19.10
2017,09,21,16,54,19.10
2017,09,21,16,55,19.20
2017,09,21,16,56,19.20
2017,09,21,16,57,19.30
2017,09,21,16,58,19.30
2017,09,21,16,59,19.30
2017,09,21,17,00,19.30
2017,09,21,17,01,19.30
2017,09,21,17,02,19.30
2017,09,21,17,03,19.30
2017,09,21,17,04,19.20
2017,09,21,17,05,19.20
2017,09,21,17,06,19.20
2017,09,21,17,07,19.20
2017,09,21,17,08,19.20
2017,09,21,17,09,19.20
2017,09,21,17,10,19.30
2017,09,21,17,11,19.20
2017,09,21,17,12,19.20
2017,09,21,17,13,19.20
2017,09,21,17,14,19.20
2017,09,21,17,15,19.20
2017,09,21,17,16,19.20
2017,09,21,17,17,19.10
2017,09,21,17,18,19.10
2017,09,21,17,19,19.00
2017,09,21,17,20,19.00
2017,09,21,17,21,19.00
2017,09,21,17,22,19.00
2017,09,21,17,23,18.90
2017,09,21,17,24,18.90
2017,09,21,17,25,18.90
2017,09,21,17,26,18.90
2017,09,21,17,27,18.90
2017,09,21,17,28,18.80
2017,09,21,17,29,18.80
2017,09,21,17,30,18.80
2017,09,21,17,31,18.80
2017,09,21,17,32,18.80
2017,09,21,17,33,18.80
2017,09,21,17,34,18.80
2017,09,21,17,35,18.80
2017,09,21,17,36,18.80
2017,09,21,17,37,18.80
2017,09,21,17,38,18.80
2017,09,21,17,39,18.80
2017,09,21,17,40,18.90
2017,09,21,17,41,18.90
2017,09,21,17,42,18.90